STARLINK-32081, 60348

Orbit data source: Space-Track

STARLINK-32081, 60348 is a payload satellite owned by SpaceX/Seattle (US) in LEO that was launched on Fri, 02 Aug 2024 UTC via an FALCON 9 launch vehicle from the Air Force Eastern Test Range (AFETR). Payload-class satellites include a variety of spacecraft equipped with specific instruments for various scientific and technological missions. These include communications satellites like Starlink; space stations such as the ISS; scientific satellites like the Hubble; Earth observation satellites from companies like Planet Labs, Umbra, and HawkEye 360; GPS; miniature CubeSats for education and research; and military/defense satellites.

Loading next visibility...
Identifier
60348, 2024-136V
Orbit
LEO
Country
Flag of USUS
Related business
Manufacturer
SpaceX/Seattle
Mission
Operational Commercial Communications
Bus & Motor
STARLINK V2M, Unknown motor
Mass
730 kg wet, ~700 kg dry
Launch date (UTC)
2024-08-02 (2 years ago)
Launch vehicle
FALCON 9
Launch site
Air Force Eastern Test Range (AFETR)
Object type
Payload
Rocket body
Debris
Shape & HBR
Box + 2 Pan, 17.7 m
Radar Cross Section
33.884 m², Large (>1 m²)

Expand to show TLE details & history
Last TLE update: 15 hours ago

TLE from 15 hours ago
0 STARLINK-32081
1 60348U 24136V   26264.93851251 -.00000438  00000-0 -23400-5 0  9992
2 60348  53.1608 242.5121 0001412  79.8207 280.2954 15.31697483119732
Epoch: 2026-09-21T22:31Z
TLE epoch observation values (Epoch: 2026-09-21T22:31:27.480Z)
Latitude
-0.00001°
Longitude
-96.16357°
Altitude
471.475 km
Speed
7.632 km/s
True Right ascension
16h 10m 02s
True Declination
0° 00' 00"
Sunlit
Object was in daylight at epoch
Visualization orbit readout
Latitude
Unknown
Longitude
Unknown
Altitude
Unknown
Speed
Unknown
Apparent Right ascension
Unknown
Apparent Declination
Unknown
Sunlit
N/A
Visualization observer readout
Local Sidereal Time
06:47:54
Azimuth
Unknown
Elevation
Unknown
Doppler factor
Unknown
Orbital elements
Apogee altitude
471.971 km
Perigee altitude
470.037 km
Semi-major axis
6,849.141 km
Eccentricity
0.00014
Inclination
53.1608°
RAAN
242.5121°
Arg. of periapsis
79.8207°
True anomaly
280.27948°
Mean anomaly
280.2954°
Eccentric anomaly
280.28744°
Mean motion
3.82903 °/min
Orbital period
94.02 mins
BSTAR
-0.00000234
Loading maneuver chart data...
Computing Atmospheric mass density...
Loading historical data...
Loading historical data...
Loading historical data...
Loading historical data...
Loading historical data...
Loading historical data...
Loading historical data...

Documentation

Showing up to 5 results
|